Theta_e
291 291 291 291 291 291 291 291 291 291 291 291 292 292 292 292 292 292 292 292 292 292 292 292 292 292 293 293 293 293 293 293 293 293 294 295 297 298 300 302 304 306 307 309 309 310 311 312 313 313 314 315 315 316 317 317 318 318 319 320 320 321 322 322 323 323 324 324 323 323 322 322 322 322 323 323 323 323 324 324 324 324 323 323 323 324
291 291 291 291 291 291 291 291 291 291 291 291 291 291 291 291 291 291 291 292 292 292 292 292 292 292 292 292 292 292 292 292 292 292 292 293 293 294 295 297 299 301 303 304 306 307 309 310 311 312 313 314 315 315 316 317 317 318 318 319 319 320 321 321 322 322 323 324 324 324 323 323 322 322 322 322 323 323 323 323 323 323 322 323 323 324
291 291 290 291 291 290 290 291 291 291 291 291 291 291 291 291 291 291 291 291 291 291 292 292 292 292 292 292 292 292 292 292 292 292 292 292 292 292 293 294 295 296 298 299 301 303 305 307 308 310 311 312 313 314 315 316 316 317 318 318 319 319 320 320 321 321 322 323 324 324 324 324 323 322 322 322 322 322 323 323 323 323 323 323 323 324
290 290 290 290 290 290 290 290 290 290 290 290 290 290 290 291 291 291 291 291 291 291 291 291 291 292 292 292 292 292 292 292 292 292 292 292 292 292 292 292 292 293 294 296 297 299 300 302 304 306 308 310 311 312 313 314 315 316 317 317 318 318 319 320 320 320 321 322 323 324 324 324 324 323 323 322 322 322 322 323 323 323 323 323 324 325
290 290 290 290 290 290 290 290 290 290 290 290 290 290 290 290 290 290 291 291 291 291 291 291 291 291 291 291 291 291 291 291 292 292 292 292 292 292 291 291 292 292 292 293 294 295 296 298 300 302 304 306 308 310 311 311 312 314 315 315 316 317 318 318 319 320 320 321 321 322 323 324 324 324 323 323 322 322 322 322 322 323 323 323 324 324
290 289 289 289 289 289 290 290 289 289 290 290 290 290 290 290 290 290 290 290 290 290 290 291 291 291 291 291 291 291 291 291 291 291 291 291 291 291 291 291 291 291 291 291 292 293 293 295 296 298 300 302 304 306 308 309 310 311 312 313 314 314 316 317 318 318 319 320 320 321 321 322 323 324 324 323 323 322 322 322 322 322 322 322 323 323
289 289 289 289 289 289 289 289 289 289 289 289 289 289 289 289 289 289 289 289 290 290 290 290 290 290 290 290 290 290 291 291 291 291 291 291 291 291 291 291 291 291 291 291 291 291 292 292 293 294 296 298 300 302 304 306 308 309 310 311 312 313 313 314 315 317 318 318 319 320 320 321 321 323 324 324 323 323 322 322 321 322 322 322 322 322
289 289 289 289 289 289 289 289 289 289 289 289 289 289 289 289 289 289 289 289 289 289 289 290 290 290 290 290 290 290 290 290 290 290 291 291 291 291 291 291 291 291 291 291 291 291 291 291 291 292 293 295 297 299 301 303 305 307 308 309 310 311 312 312 313 314 315 317 318 318 319 320 320 321 323 323 324 323 323 322 322 321 321 321 321 322
289 289 289 288 288 289 289 289 289 288 288 288 288 288 288 288 288 288 288 289 289 289 289 289 289 289 290 290 290 290 290 290 290 290 290 290 290 290 291 291 291 291 291 291 291 291 291 291 291 291 292 293 295 296 298 300 301 303 305 307 308 309 310 311 312 312 313 315 316 317 318 319 320 320 321 322 323 324 323 323 322 322 321 321 321 321
288 288 288 288 288 288 288 288 288 288 288 288 288 288 288 288 288 288 288 288 288 288 288 288 288 289 289 289 289 289 289 289 289 289 289 290 290 290 290 290 291 291 291 291 291 291 291 291 291 291 291 292 293 294 295 297 298 300 302 304 306 307 308 309 310 311 312 313 314 316 317 318 319 319 320 321 322 323 324 324 323 322 322 321 321 321
288 288 288 288 288 288 288 288 288 288 288 288 288 288 287 287 287 287 287 288 288 288 288 288 288 288 288 289 289 289 289 289 289 289 289 289 289 290 290 290 290 290 291 291 291 291 291 291 291 291 291 291 292 292 294 295 296 298 299 301 303 305 307 308 309 309 310 311 312 314 315 316 317 318 319 320 322 323 324 324 324 324 323 322 322 322
288 288 287 287 287 287 288 287 287 287 287 287 287 287 287 287 287 287 287 287 287 288 288 288 288 288 288 288 288 288 288 288 288 288 289 289 289 289 290 290 290 290 290 290 290 290 291 291 291 291 291 291 291 291 292 293 294 295 297 299 301 303 305 306 307 308 309 309 311 312 313 315 316 318 319 320 321 322 323 324 324 324 324 323 323 322
287 287 287 287 287 287 287 287 287 287 287 287 286 286 286 286 286 287 287 287 287 287 287 287 287 288 288 288 288 288 288 288 288 288 288 288 289 289 289 289 289 290 290 290 290 290 290 290 290 290 291 291 291 291 290 291 291 292 293 295 298 301 303 305 306 307 307 308 309 310 312 313 315 316 318 319 320 321 322 323 323 324 324 324 323 323
286 286 286 286 287 287 287 287 286 286 286 286 286 286 286 286 286 286 286 287 287 287 287 287 287 287 287 287 287 287 287 287 287 288 288 288 288 289 289 289 289 289 289 289 289 289 290 290 290 290 290 290 290 290 290 290 290 290 291 293 295 297 300 302 304 305 306 306 307 309 310 311 313 314 316 317 318 320 320 321 322 323 323 324 323 323
286 286 286 286 286 286 286 286 286 285 285 285 285 285 285 285 285 286 286 286 286 287 287 287 287 287 287 287 287 287 287 287 287 287 287 288 288 288 288 288 288 289 289 289 289 289 290 290 290 290 290 290 290 290 290 290 290 290 290 291 292 294 297 300 302 303 304 305 306 307 308 309 310 312 313 315 316 317 319 320 321 322 322 323 323 323
285 285 286 286 286 286 285 285 285 285 284 284 284 284 285 285 285 286 286 286 286 286 286 286 286 286 286 287 287 287 287 287 287 287 287 287 288 288 288 288 288 288 288 288 289 289 289 289 289 289 290 290 290 290 290 290 290 290 289 290 291 293 295 298 300 301 302 303 304 306 307 308 309 309 311 312 313 315 316 317 319 320 321 322 322 323
285 285 285 285 285 285 285 284 284 284 284 284 284 284 285 285 285 286 286 286 286 286 286 286 286 286 286 286 286 287 287 287 286 286 287 287 288 288 288 288 288 288 288 288 288 288 289 289 289 289 289 290 290 290 290 290 289 289 289 289 290 292 294 296 298 299 300 301 303 304 305 306 307 308 308 309 310 312 313 315 316 318 319 320 321 322
284 284 284 284 284 284 284 284 284 284 284 284 284 284 285 285 285 285 285 285 285 285 285 285 285 285 286 286 286 286 286 286 286 286 286 287 287 288 288 288 287 287 288 288 288 288 288 288 289 289 289 289 290 290 289 289 289 289 289 289 290 291 293 295 296 297 298 300 301 302 304 304 305 306 307 307 308 309 311 312 313 315 316 318 319 320
285 285 285 284 285 285 285 285 285 285 285 284 284 285 285 285 285 285 285 285 285 285 285 285 285 285 285 285 285 285 285 285 285 285 286 286 287 287 287 287 287 287 288 288 288 288 288 288 288 289 289 289 289 289 289 289 289 289 289 289 290 291 292 294 295 296 297 298 300 301 302 303 304 304 305 306 307 308 309 310 311 312 314 315 317 318
285 285 285 285 285 286 286 286 286 285 285 285 285 285 285 285 285 285 285 285 285 284 284 284 284 284 285 285 285 285 285 285 285 285 285 285 286 286 287 287 287 287 287 287 288 287 288 288 288 289 289 289 289 289 289 289 289 289 289 289 289 289 290 291 293 294 296 297 298 299 300 301 302 303 303 304 305 306 307 308 309 310 312 313 314 316
286 286 286 286 286 286 286 286 285 285 285 285 285 285 285 285 284 284 285 285 284 284 284 284 284 284 284 285 285 285 285 285 285 285 285 285 285 286 286 286 286 286 287 287 287 287 287 287 288 288 289 289 289 289 289 289 289 289 289 289 289 289 289 289 290 291 293 294 296 297 298 299 300 301 302 303 304 305 306 307 308 309 310 311 312 314
286 286 286 285 285 285 285 285 285 285 285 285 284 284 284 284 284 284 284 284 284 284 284 284 284 284 284 284 284 285 284 284 284 284 284 285 285 285 286 286 286 286 286 286 287 287 287 287 288 288 288 289 289 289 289 289 289 289 289 289 289 289 289 289 289 290 291 292 293 295 296 297 299 300 301 302 303 304 305 306 306 307 308 309 311 312
285 285 285 285 285 285 285 285 285 285 285 285 284 284 284 284 283 284 284 284 283 283 283 283 284 284 284 284 284 284 284 284 284 284 284 284 284 285 285 285 285 285 285 286 286 287 287 287 288 288 288 288 288 288 288 289 289 289 289 288 289 289 289 289 290 290 291 291 292 294 295 296 297 298 300 301 302 303 304 305 306 306 307 308 309 311
285 285 285 285 285 285 285 285 285 285 285 284 285 285 284 284 284 284 284 283 283 283 283 283 284 284 284 284 284 284 284 284 284 283 283 284 284 284 284 284 284 284 285 285 286 286 287 287 288 288 288 288 288 288 288 288 288 288 288 288 289 289 289 289 290 290 290 291 292 293 294 295 296 297 299 300 301 302 303 304 305 306 306 307 308 310
285 285 285 285 285 284 284 284 284 284 284 284 284 284 284 284 284 284 284 283 283 283 283 283 283 283 283 283 283 283 283 284 283 283 283 283 283 283 283 283 284 284 284 285 286 286 286 287 287 288 287 287 287 288 288 288 288 288 288 288 289 289 289 289 289 290 290 290 291 292 293 294 295 297 298 299 301 302 303 304 305 305 306 306 307 309
285 285 285 284 284 284 284 284 284 284 284 284 284 284 284 284 284 284 284 283 283 283 283 282 282 282 283 283 283 283 283 283 283 283 283 283 283 283 283 283 283 283 283 284 285 286 286 286 287 287 287 287 287 287 287 287 287 288 288 288 289 289 289 289 289 289 289 290 290 291 292 293 295 296 298 299 300 301 303 304 305 305 306 306 307 308
285 285 284 284 284 284 284 284 284 284 284 284 284 284 284 284 284 283 283 283 283 282 282 281 281 281 282 282 282 282 283 283 282 282 282 282 282 282 282 282 282 282 283 284 285 285 285 285 286 286 286 286 286 287 287 287 287 288 288 288 288 289 289 289 289 289 289 290 290 291 292 293 295 296 297 298 299 301 302 304 304 305 305 305 306 307
285 285 285 284 284 284 284 284 284 284 284 283 283 283 283 283 283 283 283 282 282 282 281 281 281 281 281 281 281 282 282 282 282 282 282 281 281 281 281 282 281 281 282 283 284 285 285 285 285 285 285 286 286 286 286 287 287 287 288 288 288 288 288 288 289 289 289 290 291 291 292 293 294 295 297 298 299 300 302 303 304 304 304 305 305 307
285 285 285 284 284 284 284 284 284 284 283 283 283 283 283 283 283 282 282 282 282 281 281 281 281 280 280 281 281 281 282 282 282 282 281 281 281 281 281 281 281 281 281 282 283 284 285 285 285 285 285 285 285 286 286 286 287 287 287 288 288 288 288 288 289 289 290 291 291 292 293 294 294 295 296 297 298 300 301 302 303 303 304 304 305 306
285 285 284 284 284 284 284 284 284 283 283 283 283 283 283 283 283 282 282 282 281 281 281 281 280 280 280 280 280 281 281 282 282 281 281 280 280 281 281 280 280 280 281 281 282 283 284 284 285 285 284 285 285 285 285 286 286 287 287 287 288 288 288 288 289 289 291 292 292 293 294 294 295 295 296 297 297 298 300 301 302 303 303 303 303 304
284 284 284 284 284 284 284 284 283 283 283 283 283 283 283 283 283 282 282 282 281 281 281 281 280 280 280 280 280 280 281 281 282 281 280 280 280 280 280 280 280 280 280 281 281 282 282 283 284 285 284 284 284 285 285 285 286 286 286 287 287 287 288 288 289 290 291 292 293 294 294 295 295 295 296 296 296 297 298 299 301 302 302 302 302 303
284 284 284 284 284 284 284 283 283 283 283 283 283 283 283 283 282 282 282 282 282 281 281 281 281 280 280 280 280 280 280 281 281 281 280 280 280 280 280 280 280 280 280 280 281 281 282 282 283 284 284 284 284 284 284 285 285 285 286 286 286 287 288 288 289 290 291 293 293 294 294 294 295 295 295 295 295 296 296 297 299 301 301 301 302 303
284 284 284 284 284 284 283 283 283 283 283 283 283 283 283 282 282 282 282 282 282 282 281 281 281 281 280 280 280 280 281 281 281 281 280 280 280 280 280 280 280 280 280 280 280 281 281 281 282 283 283 283 284 284 284 284 285 285 285 286 286 287 287 288 288 289 291 292 293 294 294 294 294 294 294 294 294 295 295 296 298 299 300 301 301 302
284 284 284 284 284 284 283 283 283 283 283 283 283 283 283 283 283 283 283 282 282 282 282 281 281 281 281 280 280 280 281 281 281 281 280 280 280 280 280 280 280 280 280 280 280 281 281 281 281 282 282 283 283 284 284 284 284 285 285 285 286 286 287 288 288 289 290 291 292 293 293 293 293 293 293 293 293 294 295 296 297 298 299 300 300 301
284 284 284 284 284 283 283 283 283 283 283 283 283 283 283 283 283 283 283 283 282 282 282 282 282 281 281 281 281 281 281 282 282 281 281 280 280 280 280 280 280 280 280 280 280 281 281 281 281 281 282 282 283 283 284 284 284 284 285 285 285 286 287 287 288 288 289 290 291 292 292 293 292 292 292 292 293 294 294 295 296 297 298 299 299 300
285 285 284 284 284 283 283 283 283 283 283 283 283 283 283 283 283 283 283 283 283 283 282 282 282 282 282 281 281 281 281 282 282 282 281 281 281 280 280 280 280 280 280 280 280 280 281 281 281 281 281 282 282 283 283 284 284 284 284 285 285 286 286 287 287 287 288 289 289 290 291 291 291 291 292 293 293 294 294 295 295 297 298 299 299 300
284 284 284 284 284 283 283 283 283 283 283 283 283 283 283 283 283 283 283 283 283 283 283 283 283 282 282 282 281 281 282 282 282 282 281 281 281 281 281 280 280 280 280 280 280 280 280 281 281 281 281 282 282 282 283 283 283 284 284 285 285 285 286 287 287 287 287 288 288 289 289 289 290 291 292 293 293 294 294 295 295 296 297 298 299 299
283 283 283 283 283 283 283 283 283 283 283 283 283 283 283 283 283 283 282 282 282 282 282 282 283 283 283 282 282 282 282 282 282 282 282 281 281 281 281 281 280 280 280 280 280 280 280 281 281 281 281 281 282 282 282 282 283 283 284 284 285 285 286 286 286 287 287 287 287 287 288 288 289 290 291 292 292 293 294 294 295 295 296 297 298 299
283 283 283 283 283 283 283 283 283 283 283 283 283 283 283 282 282 282 282 282 282 282 282 282 282 283 283 283 283 282 282 282 282 282 282 282 281 281 281 281 281 281 280 280 280 280 280 281 281 281 281 281 281 282 282 282 283 283 284 284 285 285 285 286 286 286 286 286 286 287 287 287 288 288 289 290 291 291 292 293 294 294 295 296 297 298
282 282 283 283 283 283 283 283 283 283 283 283 283 283 282 282 282 282 282 282 282 282 282 282 282 283 283 283 283 283 283 282 282 282 282 282 282 281 281 281 281 281 281 281 281 281 281 281 281 281 281 281 281 281 282 282 282 283 283 283 284 284 285 285 286 286 286 286 286 286 286 287 287 287 288 288 289 290 290 291 292 293 294 294 295 296
282 282 282 282 283 283 283 283 283 283 283 283 283 282 282 282 282 282 282 282 282 282 282 282 282 283 283 283 283 283 283 283 283 282 282 282 282 282 281 281 281 281 281 281 281 281 281 281 281 281 281 281 281 281 281 282 283 283 283 283 283 284 285 285 285 285 286 286 286 286 286 286 287 287 287 288 288 288 289 290 291 292 293 294 295 295
282 282 282 282 282 283 283 283 283 283 283 283 283 282 282 282 282 282 282 282 282 282 282 282 282 282 283 283 283 283 283 283 283 283 282 282 282 282 282 281 281 281 281 281 281 281 281 281 281 281 281 281 281 281 282 282 283 283 283 283 283 284 284 285 285 285 285 285 286 286 286 286 286 287 287 287 288 288 288 289 290 291 292 293 294 295
281 282 282 282 282 283 283 283 283 283 283 282 282 282 282 282 282 282 281 281 282 282 282 282 282 282 282 283 283 283 283 283 283 283 282 282 282 282 282 282 281 282 282 282 281 281 281 281 281 281 281 281 281 281 282 282 283 283 283 283 283 283 284 284 285 285 285 285 285 285 285 285 286 286 287 287 288 288 288 289 289 290 291 292 293 294
281 281 281 282 282 282 282 282 282 282 282 282 282 282 282 282 282 282 281 281 281 282 282 281 281 281 282 282 282 283 283 283 283 283 283 282 282 282 282 282 282 282 282 282 282 282 281 281 281 281 281 281 281 282 282 282 283 283 283 283 283 283 284 284 284 284 285 285 285 285 285 285 285 286 287 287 288 288 288 288 289 290 291 292 292 293
281 281 281 281 281 281 281 281 281 282 282 282 282 282 282 282 282 282 281 281 281 281 281 281 281 281 281 281 282 282 282 282 283 283 283 282 282 282 282 282 282 282 282 282 282 282 282 282 282 282 282 282 282 282 282 282 283 283 283 283 283 284 284 284 284 284 284 284 285 285 285 285 285 286 286 287 288 288 288 288 289 289 290 291 292 292
281 281 281 281 281 281 281 281 281 281 281 281 281 281 282 282 282 282 281 281 281 281 281 281 281 281 281 281 281 282 282 282 282 282 282 282 282 282 282 282 282 282 282 282 282 282 282 282 282 282 282 282 282 282 282 283 283 283 283 283 284 284 284 284 284 284 284 284 284 284 284 285 285 285 286 286 287 288 288 288 288 288 289 290 291 291
281 281 281 281 281 281 281 281 281 281 281 281 281 281 281 281 281 281 281 281 281 281 281 281 281 281 281 281 281 281 281 282 282 282 282 282 282 282 282 282 282 282 282 282 282 282 282 282 282 282 282 282 282 283 283 283 283 283 283 284 284 284 284 284 284 284 284 284 284 284 284 284 284 285 285 286 287 287 288 288 288 288 288 289 290 291
281 281 281 281 281 281 281 280 280 280 280 281 281 281 281 281 281 281 281 281 281 281 280 280 281 281 281 281 281 281 281 282 282 282 282 282 282 282 282 282 282 282 282 282 282 282 282 282 282 282 282 282 283 283 283 283 283 283 284 284 284 284 284 284 284 284 284 284 284 284 284 284 284 284 285 285 286 287 287 287 288 288 288 288 289 290
281 281 281 281 281 281 281 281 280 280 280 280 280 281 281 281 281 281 281 281 280 280 280 280 280 280 280 281 281 281 281 282 282 282 282 282 282 282 282 282 282 282 282 282 282 282 282 283 283 283 283 283 283 283 283 283 283 283 284 284 284 284 284 284 284 284 284 284 284 284 284 284 283 284 284 284 285 286 286 287 287 288 288 288 288 289
281 281 281 281 281 281 281 281 281 280 280 280 280 280 281 281 281 281 281 280 280 280 280 280 280 280 280 281 281 281 281 281 282 282 282 282 282 282 282 282 282 282 282 282 282 283 283 283 283 283 283 283 283 283 283 283 283 283 283 283 283 283 283 283 283 283 283 283 283 284 284 284 283 283 283 284 284 285 286 286 287 288 288 288 288 288
282 281 281 281 281 281 281 281 281 280 280 280 280 280 280 280 281 281 280 280 280 280 280 280 280 280 280 281 281 281 281 281 281 282 281 281 281 282 282 282 282 282 282 282 283 283 283 283 283 283 283 283 283 283 283 283 283 283 283 283 283 283 283 283 283 283 283 283 283 283 283 283 283 283 283 283 284 284 285 286 287 287 288 288 288 288
Wind_Speed
18 19 19 19 20 21 21 21 22 23 24 25 25 26 26 26 26 26 27 27 27 27 27 27 28 28 29 29 30 30 29 29 28 28 28 28 29 30 31 32 34 35 37 37 38 38 38 38 39 40 40 40 41 42 43 45 46 48 49 49 48 48 47 45 43 41 40 39 39 39 39 39 39 40 40 41 41 41 42 42 43 44 44 44 44 44
20 20 20 21 21 21 22 22 23 23 25 26 26 27 27 27 27 27 27 27 27 27 27 27 27 27 27 27 27 28 28 28 28 28 28 28 28 28 29 31 32 34 35 36 37 38 38 38 39 39 39 39 39 40 41 43 45 47 49 50 50 50 50 49 47 45 42 41 39 39 39 39 39 39 40 41 42 42 42 43 44 45 45 46 46 46
21 22 22 22 22 23 23 24 24 24 25 26 27 27 27 28 28 28 28 28 28 27 27 27 27 27 26 26 26 26 27 27 27 28 28 28 28 28 28 29 30 31 33 35 37 38 39 39 39 39 39 39 39 39 39 41 43 46 48 49 50 51 51 51 50 49 46 44 42 40 39 39 39 39 40 41 42 43 43 44 44 45 46 47 47 47
22 23 23 24 24 24 24 25 25 25 26 27 27 28 28 28 29 29 29 29 29 28 28 28 27 27 27 27 26 26 26 26 26 27 27 27 27 27 27 27 28 29 31 32 34 36 38 39 39 39 39 39 39 39 39 39 41 44 46 48 49 50 51 52 53 52 50 48 45 43 41 40 40 40 40 40 42 43 44 45 45 46 47 48 48 47
22 22 23 25 25 25 26 26 26 27 28 28 29 29 30 29 30 30 30 30 30 30 29 29 29 28 28 28 28 28 27 27 27 27 26 26 26 26 26 26 27 27 28 30 31 33 35 37 38 39 39 39 39 40 40 40 40 42 44 45 46 47 49 51 52 53 52 51 49 47 44 43 42 41 40 40 41 42 44 45 46 47 47 47 47 47
22 23 24 25 25 26 27 26 26 27 29 30 31 31 30 30 30 31 32 32 32 32 31 31 30 30 30 29 29 29 29 28 28 28 28 27 27 27 26 26 26 27 27 28 29 30 31 33 34 36 37 37 38 38 39 40 41 42 43 43 42 43 44 47 50 52 53 53 52 51 49 47 45 44 43 42 42 42 43 44 45 46 47 46 46 46
23 23 25 25 26 26 26 25 26 27 29 31 32 32 31 31 31 32 33 34 34 34 33 33 32 32 31 31 31 31 31 30 30 30 29 29 28 28 27 27 27 27 27 27 27 27 28 29 30 31 32 32 33 34 36 38 41 42 42 42 41 40 41 43 45 48 51 53 54 53 52 50 49 47 47 46 45 44 43 44 44 45 46 45 45 45
24 24 25 25 26 27 26 25 25 27 29 30 31 31 31 31 32 33 34 34 34 35 35 34 34 33 33 32 32 32 32 32 32 32 32 31 30 29 29 28 27 27 27 26 26 26 26 26 26 27 27 27 27 29 31 35 38 41 42 42 41 40 39 40 41 44 46 49 52 53 54 53 52 50 49 49 48 47 46 45 45 45 45 45 44 44
23 24 24 24 25 25 25 25 25 27 28 28 28 28 29 31 33 35 35 35 35 35 35 35 36 35 34 34 33 34 34 34 34 34 34 33 32 31 30 30 29 28 27 27 26 25 25 25 24 25 25 25 25 26 27 30 34 37 39 40 40 39 39 38 38 39 41 44 47 50 53 54 53 52 51 50 50 50 49 48 46 46 45 45 45 45
21 22 23 23 23 23 23 23 25 26 27 26 26 25 26 29 32 35 36 36 35 35 34 35 36 36 36 35 35 35 35 35 35 35 35 35 34 33 32 31 31 30 29 28 27 26 25 25 24 24 24 24 24 25 26 27 30 32 35 36 37 37 36 36 35 35 36 38 41 44 48 51 52 52 52 51 51 51 51 50 49 48 47 46 46 46
20 21 22 22 22 22 21 22 23 25 26 26 26 26 26 28 30 32 34 35 35 34 34 34 35 36 37 37 36 36 36 36 36 36 36 36 34 33 33 32 32 32 31 30 29 28 27 26 25 25 25 24 24 25 26 27 28 30 31 32 33 34 34 33 32 32 32 33 35 38 42 45 48 50 52 52 52 51 51 51 51 50 50 49 48 48
19 20 21 21 21 21 21 22 23 24 24 25 26 27 28 28 29 30 30 31 31 32 32 33 34 35 35 36 36 36 35 35 35 36 37 37 36 35 34 34 34 33 33 32 31 30 29 28 28 27 26 26 26 26 26 27 28 29 29 30 31 32 32 32 31 30 30 31 32 35 38 41 44 46 49 51 52 52 52 51 51 52 52 52 51 51
19 19 20 20 20 20 20 21 22 23 23 24 25 26 27 28 29 29 28 28 28 29 30 32 33 34 34 34 33 33 33 34 35 36 38 38 38 37 36 36 36 35 34 34 33 32 31 31 30 29 28 28 27 27 26 26 27 27 28 29 30 30 31 31 31 30 30 31 32 33 35 38 40 43 46 49 51 52 52 52 52 53 53 54 54 54
19 19 19 19 18 18 19 20 21 22 22 23 24 25 26 27 27 27 27 27 27 28 29 30 32 33 34 32 31 31 32 33 35 37 39 39 38 37 37 37 37 36 35 35 34 33 33 32 31 31 30 29 28 27 27 27 27 27 27 28 28 29 29 30 30 30 31 31 32 33 34 35 37 40 43 46 49 51 52 53 53 54 55 55 55 56
18 18 18 17 17 17 18 19 20 21 21 22 23 24 25 25 25 25 25 26 26 27 27 28 30 32 32 30 30 30 31 33 35 37 39 39 38 37 37 37 37 36 36 34 33 33 34 33 32 31 30 29 28 27 27 27 27 27 27 27 27 26 27 27 28 29 30 32 32 33 32 32 33 35 38 42 45 48 50 52 54 55 57 57 57 57
17 16 16 16 16 16 17 18 19 20 21 22 22 22 23 24 24 24 24 25 25 25 25 26 27 28 28 28 28 29 31 33 35 37 38 39 37 36 36 36 37 36 35 34 33 34 34 34 33 32 31 29 28 27 27 27 27 27 26 26 25 24 24 24 26 27 30 32 33 33 32 31 31 32 34 37 40 44 47 50 53 55 57 58 58 58
15 14 15 15 16 17 18 19 20 20 21 22 22 22 22 23 24 25 25 25 25 25 24 23 24 25 26 26 27 28 31 33 35 36 37 37 36 35 35 36 36 35 35 33 33 34 34 34 34 33 31 30 28 27 27 26 26 25 25 24 23 23 22 22 23 26 29 31 33 32 32 31 30 30 31 33 35 39 42 46 49 53 56 58 59 59
16 16 17 17 19 20 22 22 23 23 24 24 25 26 26 26 26 26 25 25 25 25 25 24 24 24 25 25 26 28 32 33 34 35 36 36 36 35 34 34 34 34 34 34 34 34 35 35 35 34 32 30 29 28 26 25 25 24 24 23 22 22 21 22 24 26 29 31 32 32 31 31 30 30 30 31 32 35 38 41 45 48 52 55 58 59
20 20 21 22 23 25 25 25 25 25 26 26 27 28 28 28 28 27 27 26 26 26 26 27 26 25 25 26 28 31 33 33 33 33 33 34 35 35 34 33 33 34 34 35 35 35 36 36 36 35 33 31 30 28 26 24 23 23 22 22 22 22 22 23 25 28 29 30 31 31 31 30 30 30 30 30 31 32 34 37 40 43 47 51 55 57
23 24 24 24 25 26 25 25 25 25 25 26 27 28 28 29 28 28 28 28 28 27 27 27 27 27 28 30 32 34 33 32 31 30 30 32 33 34 33 32 32 33 34 36 36 35 36 37 37 36 34 32 31 29 26 24 22 21 21 21 21 22 23 25 26 28 30 30 31 31 31 31 31 30 30 30 30 31 31 33 35 38 42 46 50 54
23 23 22 22 23 23 23 23 23 23 23 24 25 26 27 28 28 28 29 29 29 29 29 28 28 29 30 32 33 33 31 29 28 27 28 30 32 32 32 31 31 32 35 37 37 37 37 38 38 37 35 34 32 30 27 25 23 22 22 22 22 22 23 24 25 27 28 29 30 30 31 31 31 32 31 31 30 30 30 31 32 34 37 41 45 49
21 21 21 21 21 20 21 21 21 21 21 22 23 24 25 26 27 27 28 29 29 28 28 28 29 30 31 31 31 30 28 25 24 25 27 28 30 31 30 30 31 33 35 37 38 38 38 38 38 37 36 35 33 31 29 27 26 25 24 24 23 23 22 22 23 24 25 26 27 27 28 30 31 32 32 32 31 31 30 30 30 32 34 37 41 45
20 20 20 20 20 20 20 20 20 20 21 21 21 22 23 24 24 25 26 26 26 27 27 28 29 30 30 29 28 27 24 23 22 23 25 26 28 29 29 30 31 33 35 37 38 38 39 39 39 38 37 35 34 32 31 30 30 29 28 27 25 23 21 21 21 22 23 23 24 25 26 27 29 31 31 31 31 31 31 30 30 30 32 34 38 42
20 20 20 20 20 19 19 19 20 20 20 20 21 21 22 22 23 24 24 24 25 25 26 28 29 29 29 28 26 25 24 23 23 23 23 23 25 27 28 30 32 34 35 37 38 39 40 40 39 38 37 36 34 33 32 32 32 32 31 28 26 23 21 20 20 20 21 21 22 23 24 25 27 28 29 30 31 31 31 30 30 29 30 32 35 40
20 20 20 20 19 19 19 19 19 19 19 20 20 21 22 22 23 23 23 23 23 24 26 27 28 28 27 27 26 25 25 25 24 22 22 23 24 27 29 30 31 33 36 38 39 39 40 40 40 38 37 36 34 33 33 33 34 33 32 29 26 24 22 21 20 20 20 21 21 22 23 23 24 25 26 27 28 29 30 30 29 28 29 30 33 37
20 20 20 20 19 19 18 18 18 18 18 19 19 20 21 22 22 22 22 22 23 24 26 26 26 27 27 27 26 26 27 26 23 21 20 22 25 28 31 32 31 32 35 39 40 40 41 41 40 38 36 34 34 33 33 34 35 34 32 30 28 26 25 24 23 22 22 21 21 21 21 21 21 22 23 24 26 28 28 29 28 27 26 28 30 35
20 20 20 19 19 18 18 17 17 17 17 18 18 19 20 21 22 22 22 23 24 25 25 25 25 26 27 27 27 27 28 26 22 19 20 23 26 28 31 31 31 32 35 38 40 41 40 40 38 36 34 33 32 33 35 36 36 35 33 31 30 29 27 26 25 24 23 22 21 20 19 19 19 20 20 22 24 26 27 27 27 25 24 25 27 31
20 20 20 19 19 18 18 17 17 17 17 17 18 18 19 20 21 21 21 22 24 24 23 23 24 25 26 26 27 28 27 23 20 19 23 26 27 28 30 30 30 31 34 37 40 41 40 37 35 33 31 32 33 35 37 38 37 36 34 33 32 31 30 28 27 25 23 21 20 18 18 17 17 17 18 20 21 23 25 26 25 24 22 22 23 26
20 20 19 19 19 18 18 18 18 18 17 17 18 18 19 20 20 20 21 22 23 23 22 22 23 23 24 26 28 28 25 21 20 22 26 28 27 28 29 29 29 30 32 35 39 41 40 36 32 30 30 32 35 37 38 39 38 36 35 34 33 33 32 30 27 25 22 20 19 17 16 16 15 16 17 18 19 20 22 23 23 22 21 19 19 20
19 19 19 19 19 19 18 18 18 18 18 18 18 18 19 19 19 20 21 21 22 22 22 22 23 23 24 26 27 26 24 23 24 26 27 27 27 27 28 28 28 29 29 31 34 36 38 38 35 32 31 33 36 37 38 38 37 36 35 35 35 34 33 31 28 24 21 19 18 17 17 16 16 17 17 17 18 18 19 20 21 21 19 18 17 17
19 19 18 18 18 18 18 19 19 19 19 18 18 18 18 18 19 19 20 21 21 21 22 22 23 23 23 24 23 23 23 26 27 27 27 26 26 27 27 28 28 28 27 26 27 29 33 37 39 38 36 35 36 37 37 36 35 34 34 34 35 35 34 32 28 24 21 19 17 17 18 19 19 19 20 20 21 21 20 20 20 19 18 18 18 17
19 18 18 18 18 18 18 18 19 19 19 18 18 18 18 18 18 18 19 20 20 21 22 22 23 23 23 22 22 22 25 28 28 27 26 26 26 26 26 27 27 27 27 25 24 25 26 32 38 41 40 38 36 36 36 35 34 33 33 34 35 36 35 33 29 25 22 19 18 18 19 20 22 23 24 25 25 25 24 21 19 18 18 18 19 18
18 18 17 17 17 17 17 18 18 18 18 18 18 17 17 17 17 18 18 19 20 20 21 22 23 24 24 24 24 25 26 28 27 26 25 25 26 27 27 27 27 27 27 27 25 24 25 29 34 38 40 39 37 35 35 34 33 32 33 34 36 36 35 33 30 26 23 20 19 19 19 21 22 24 26 27 27 27 25 22 19 17 17 18 20 20
18 17 17 16 16 16 16 16 17 17 17 17 17 17 17 17 17 18 18 19 20 20 21 22 23 24 25 25 26 27 28 28 26 25 24 25 26 27 27 27 27 27 28 28 27 26 27 29 31 34 36 38 38 36 33 32 32 33 35 35 36 36 35 33 30 28 25 22 21 21 21 22 23 25 27 27 27 26 25 22 20 18 17 18 20 21
17 16 16 16 15 15 15 15 16 16 16 16 16 16 17 17 17 18 18 19 20 21 21 22 22 23 24 25 26 28 29 28 26 24 23 24 26 27 27 27 27 27 27 28 28 28 27 28 30 32 34 37 38 36 34 32 33 34 36 36 36 35 34 32 30 28 26 25 24 24 23 24 25 27 28 27 26 25 24 23 21 19 17 18 19 20
17 16 16 16 15 15 15 15 16 16 16 16 16 16 17 17 17 18 19 20 21 21 22 23 24 24 25 25 26 27 28 28 26 25 24 24 25 26 27 27 27 27 28 28 28 28 28 29 31 32 32 33 35 36 36 36 36 36 36 36 36 34 33 31 30 29 28 27 26 26 26 27 28 29 28 26 25 24 24 23 22 20 18 18 18 18
17 16 16 16 16 16 16 16 16 16 16 17 17 17 17 17 18 18 19 20 21 22 23 25 26 26 26 26 26 27 28 28 27 26 25 24 24 25 26 27 28 27 27 27 28 28 28 30 31 32 32 31 31 33 36 38 39 38 37 36 36 34 33 31 29 28 28 28 28 28 28 29 30 30 29 27 26 25 24 23 22 21 19 18 17 17
17 17 16 16 16 16 16 16 16 17 17 17 18 18 18 18 18 19 20 21 22 23 24 25 26 27 27 27 27 27 27 27 27 27 26 25 25 25 26 28 28 28 27 27 27 28 28 29 30 31 31 31 32 34 36 37 38 38 38 37 36 34 33 31 30 29 29 29 30 30 30 30 30 31 30 29 28 26 25 24 23 22 21 19 18 17
17 17 17 17 16 16 17 17 17 17 18 18 18 18 19 19 19 20 21 22 22 23 24 25 26 27 28 28 27 26 26 26 27 27 27 26 26 26 27 28 28 29 28 27 27 27 27 28 28 29 31 32 34 36 36 36 36 37 38 38 36 34 33 31 30 30 30 31 32 32 31 30 31 31 31 30 29 28 27 27 26 25 24 23 21 19
18 18 17 17 17 16 16 17 17 18 18 19 19 19 19 20 20 21 21 22 22 23 24 25 26 27 28 27 27 26 26 26 27 27 27 27 27 27 27 28 28 29 28 27 27 27 27 28 29 30 31 32 34 35 36 36 36 36 37 36 36 35 34 32 31 31 31 32 33 34 33 32 32 31 31 30 29 29 28 28 27 26 25 25 24 23
18 18 18 17 17 17 17 17 18 18 19 19 20 20 20 20 21 22 22 23 23 23 24 25 26 27 27 26 26 26 26 26 27 27 27 28 28 28 28 28 28 28 28 28 28 27 27 28 30 31 31 32 33 34 35 35 35 35 34 34 34 35 35 33 32 31 32 33 34 35 35 34 33 32 31 30 29 28 27 27 26 25 24 23 22 22
17 18 18 17 17 17 18 18 18 18 19 19 19 19 20 21 21 22 23 23 23 23 24 25 26 27 28 27 27 26 26 27 27 28 28 28 28 28 28 28 28 28 28 28 28 28 28 29 30 31 31 32 32 33 34 35 34 33 32 32 33 34 35 33 32 31 32 34 35 35 35 35 34 34 32 31 30 28 27 25 25 24 23 22 21 20
17 17 17 17 18 18 18 18 18 18 19 19 19 19 20 20 21 22 22 23 23 23 24 25 26 27 28 29 29 29 28 28 28 29 28 28 28 27 27 27 27 27 28 28 29 29 29 30 30 30 31 31 32 32 33 34 34 33 32 31 31 31 32 32 32 33 33 34 35 35 35 35 35 34 33 31 30 28 27 25 23 22 21 21 20 20
17 17 17 18 18 18 18 18 18 18 18 18 19 19 20 20 21 21 22 22 23 23 24 25 26 27 28 28 29 30 31 31 31 30 30 29 28 27 27 27 26 26 27 28 29 30 31 31 31 30 31 31 31 31 32 32 33 32 31 30 29 28 29 31 32 33 34 34 34 35 35 36 36 34 33 31 30 28 27 25 23 22 21 20 20 20
17 17 17 18 18 18 17 17 18 18 18 19 19 19 20 20 21 21 21 22 23 23 24 25 26 26 27 28 29 30 31 32 32 32 31 30 29 28 27 27 27 27 27 28 28 29 30 31 31 31 31 30 30 30 30 31 31 31 30 30 29 29 29 30 31 31 32 33 34 35 36 36 36 35 34 32 31 29 28 26 24 23 21 20 20 21
16 17 17 18 18 18 18 18 18 19 19 19 19 20 20 20 21 21 21 22 22 23 24 25 25 25 26 27 28 29 30 31 32 32 32 31 31 30 29 28 28 27 28 28 28 28 29 30 30 30 30 30 30 30 30 29 29 29 29 30 29 29 30 30 30 30 31 32 33 35 37 36 36 35 35 33 32 30 29 27 26 24 23 22 21 22
16 17 17 18 18 18 18 19 19 19 20 20 20 20 20 21 21 21 21 21 22 23 24 24 24 24 25 26 27 28 28 30 31 31 31 31 31 31 30 29 28 28 28 27 28 28 28 28 28 27 28 28 29 29 29 28 28 28 29 29 29 29 29 30 30 31 31 32 34 36 38 37 36 36 35 34 33 32 30 29 27 26 24 23 23 23
16 17 17 18 18 18 19 19 19 20 20 21 21 21 21 21 21 21 21 21 22 23 23 24 24 25 25 25 26 27 28 28 29 30 30 31 31 31 30 29 29 28 28 28 28 27 27 27 26 25 25 25 26 27 28 27 27 27 28 28 29 29 30 31 31 31 31 33 35 37 37 36 35 35 35 34 34 33 32 31 29 27 26 24 24 24
16 17 17 17 18 18 19 19 19 20 21 21 21 21 21 20 20 20 21 22 22 22 23 23 24 25 25 25 26 27 27 28 28 29 29 30 30 30 30 30 30 30 29 29 28 27 26 26 25 23 22 22 23 24 26 26 27 27 28 28 28 28 29 31 31 32 32 34 36 37 37 35 34 33 33 33 34 34 34 33 31 29 27 26 25 25
16 16 17 17 18 18 19 19 20 20 21 21 21 22 21 21 20 20 21 21 22 22 23 23 23 24 25 26 26 27 27 28 28 28 29 29 30 30 31 31 31 31 30 30 29 28 27 26 24 22 19 18 19 21 23 26 27 28 29 28 28 28 29 30 32 33 34 35 36 37 36 35 33 32 31 31 32 34 35 35 33 31 29 28 27 26
16 16 16 17 18 18 19 20 20 20 21 21 21 21 21 21 21 21 21 22 22 23 23 23 23 24 25 25 26 26 27 28 28 29 29 30 30 30 30 30 30 30 29 29 29 28 27 26 24 23 21 19 18 18 21 24 26 28 29 29 29 29 29 31 33 34 35 35 35 35 35 34 32 31 30 29 31 33 35 36 36 34 31 30 29 28
Wind_Direction
337 337 337 337 336 335 334 333 331 329 327 326 324 324 324 323 322 321 321 321 320 320 319 318 317 316 316 315 315 315 314 312 309 306 301 296 292 288 284 282 280 280 279 279 279 278 278 276 275 274 273 273 273 274 274 275 275 275 276 276 276 275 275 274 274 274 272 270 266 263 261 258 255 252 248 246 244 243 243 242 242 242 243 245 247 250
340 340 340 341 340 339 338 335 334 333 332 330 329 328 328 326 325 325 324 324 324 324 323 322 321 320 319 319 318 317 316 315 313 311 308 305 301 296 292 288 285 283 282 281 280 279 277 275 274 273 273 273 273 273 273 273 273 273 273 274 274 274 274 274 274 274 274 272 269 266 262 260 258 255 252 249 246 245 244 244 244 244 244 245 246 248
343 343 343 343 342 341 340 338 336 334 333 333 332 331 330 329 328 328 327 327 327 326 326 325 324 323 322 322 321 320 318 317 315 313 311 309 307 304 300 296 292 289 286 284 282 281 279 277 275 273 272 272 273 273 273 272 271 271 271 271 272 272 272 273 273 273 274 274 272 268 265 262 259 257 255 252 248 246 244 243 243 244 244 244 245 246
345 344 343 343 343 343 342 340 338 336 335 334 334 333 332 331 331 330 330 330 329 329 328 328 327 326 325 325 324 322 321 319 317 315 313 311 309 307 304 301 298 294 291 288 286 284 283 281 279 276 274 272 272 272 273 273 272 271 270 269 269 269 270 270 271 272 272 272 271 270 267 264 261 259 257 255 251 248 245 243 242 242 242 242 243 243
346 345 344 343 343 343 344 342 340 338 337 336 336 336 335 334 334 333 332 332 331 331 330 330 330 329 329 328 327 325 323 321 320 317 315 313 311 309 307 305 303 300 297 294 291 289 287 286 284 281 279 276 274 273 274 274 273 271 270 269 269 268 268 268 269 269 270 270 270 269 267 265 262 259 258 256 254 251 247 244 242 241 241 240 240 241
346 345 345 344 344 344 345 343 341 339 339 338 338 338 337 336 335 334 334 334 333 333 332 332 332 332 332 331 330 328 326 324 322 320 318 317 315 313 311 309 307 305 303 300 298 295 293 291 289 287 285 281 278 276 274 274 273 272 271 271 271 270 269 267 267 267 268 268 268 268 267 265 263 260 258 256 255 253 250 247 243 241 239 239 239 240
346 345 346 345 345 345 346 344 342 340 340 339 339 339 338 337 336 335 335 336 335 335 334 334 334 334 334 333 332 330 328 326 325 323 322 321 320 318 317 314 312 309 307 305 303 301 299 297 294 292 290 287 283 279 276 274 272 271 271 271 271 271 271 269 268 267 266 266 266 267 267 267 265 263 259 256 254 253 252 249 246 243 240 239 239 239
346 345 345 345 346 346 345 344 342 340 340 340 340 340 338 337 335 335 335 336 336 336 336 335 335 334 334 334 333 332 331 329 328 327 326 326 325 324 322 319 316 314 311 309 307 306 304 301 299 296 293 290 286 282 277 274 273 271 271 271 271 271 271 271 270 269 267 266 265 264 265 265 266 266 263 259 256 253 252 251 248 246 242 240 239 239
346 345 345 345 346 345 344 342 340 340 341 341 340 339 337 335 335 335 336 336 337 337 338 337 336 335 335 335 334 333 333 332 331 331 330 330 329 328 326 324 321 319 316 314 312 309 308 305 303 300 296 292 288 284 280 277 275 273 272 271 271 271 270 271 271 271 269 267 265 264 263 263 264 265 265 263 259 256 252 251 249 248 245 242 240 239
346 345 345 345 346 345 343 340 339 339 340 340 339 338 336 335 335 336 336 337 337 338 338 338 337 336 336 335 335 334 334 333 332 332 331 331 330 330 328 327 325 323 321 320 317 315 312 310 307 304 300 297 293 290 286 283 279 276 274 273 272 271 270 269 269 269 268 267 265 263 262 261 261 262 263 263 262 259 255 253 250 249 247 245 243 241
345 345 344 344 345 344 343 339 338 338 339 339 338 337 336 336 337 337 336 336 337 337 338 337 337 337 336 336 336 335 334 333 331 330 330 330 330 329 328 327 326 326 325 324 323 321 319 316 313 310 306 303 300 297 293 289 286 283 280 277 274 271 269 268 267 266 265 264 262 261 260 259 259 259 259 260 260 260 258 255 253 251 249 247 245 243
344 344 344 344 344 342 341 339 339 338 338 338 338 337 337 337 338 338 337 335 335 335 335 335 335 336 336 336 336 335 334 332 330 329 328 329 329 329 328 328 327 327 327 327 326 325 324 322 320 317 314 312 308 305 302 298 295 291 287 282 277 273 270 268 266 265 264 262 260 258 256 256 256 256 256 257 258 258 257 256 254 253 252 250 248 246
345 345 344 344 343 341 339 338 337 338 339 339 338 337 336 337 339 339 337 334 332 332 332 332 332 334 336 336 336 334 332 330 328 327 327 327 328 329 329 329 328 328 328 328 327 327 326 326 324 323 322 320 318 316 312 308 303 298 293 287 281 277 272 270 268 267 265 263 260 257 254 253 252 252 253 254 255 255 255 254 254 253 253 252 250 248
346 345 344 343 341 340 338 337 337 336 337 338 338 337 337 338 339 338 335 332 329 329 329 328 329 331 334 335 335 334 331 328 326 325 325 326 327 328 329 329 328 328 329 328 327 326 327 327 326 326 326 326 325 323 319 315 310 305 299 294 288 282 276 272 270 268 267 265 261 258 255 253 251 250 250 250 251 252 252 252 252 252 252 252 251 250
346 345 343 340 338 337 336 335 335 335 335 337 338 339 339 339 338 336 332 328 326 325 326 326 326 327 330 332 334 333 330 327 325 324 324 325 326 327 329 328 327 327 328 327 326 325 326 326 326 326 327 327 327 325 321 316 312 309 306 301 296 289 282 276 272 270 269 266 263 260 257 255 253 251 249 249 249 249 249 249 249 249 250 250 251 250
347 345 340 337 335 334 334 333 333 334 335 337 338 339 337 334 333 332 329 326 324 323 324 324 324 324 325 328 331 332 330 327 325 324 323 324 325 326 328 328 327 327 327 325 324 323 324 325 326 327 328 328 327 325 321 317 314 311 309 306 301 294 286 279 274 271 270 268 265 262 260 258 257 255 252 251 249 248 248 247 247 247 247 248 249 249
349 344 340 336 335 335 336 337 337 337 337 338 337 335 333 331 330 329 327 325 324 324 324 323 322 322 321 323 326 329 329 327 324 323 323 323 324 326 328 327 326 326 325 323 321 321 323 324 325 326 328 328 328 326 323 319 316 313 311 307 302 295 287 280 276 273 271 269 267 265 264 262 261 259 257 255 253 251 249 248 247 246 246 246 246 247
352 348 345 342 340 340 342 342 342 341 341 339 336 334 332 331 330 328 327 326 325 325 324 323 321 319 319 318 320 323 327 326 324 324 323 323 324 325 327 327 325 324 322 320 319 320 322 323 324 326 327 328 329 328 325 322 318 315 312 308 302 294 287 281 277 275 273 270 269 268 267 266 264 263 261 259 257 255 253 251 249 248 246 246 246 246
355 353 351 348 346 345 345 344 343 341 339 336 334 332 330 330 330 329 327 326 325 324 323 321 319 317 316 315 316 321 326 326 325 324 323 322 323 325 327 327 324 322 319 318 319 320 322 323 324 326 327 328 329 329 327 324 321 317 314 309 304 296 289 283 279 277 275 273 272 270 269 268 266 265 263 262 261 260 258 256 254 252 250 248 247 246
356 354 352 349 347 345 343 342 340 338 335 333 332 330 328 328 328 327 326 325 324 323 322 320 318 316 316 315 317 322 327 329 327 324 321 319 320 323 326 326 323 319 318 318 319 321 322 323 324 325 326 327 328 329 328 326 324 321 319 316 311 306 299 293 287 283 280 278 275 273 271 270 268 267 265 264 263 263 263 262 260 259 256 253 251 249
354 352 349 347 345 343 340 338 337 335 333 332 330 328 327 327 326 326 325 325 324 323 322 319 317 316 316 316 318 323 329 330 327 322 319 317 317 320 325 324 321 318 317 318 320 321 322 322 323 324 326 327 328 329 329 329 329 328 327 326 323 319 313 307 300 294 289 285 281 278 275 273 271 269 267 266 265 264 264 264 264 263 262 259 256 253
352 350 349 347 345 342 339 337 336 336 334 331 328 326 325 324 324 324 324 324 324 322 320 318 316 317 318 318 321 325 330 329 325 320 317 315 315 318 323 322 320 318 317 319 320 321 321 322 322 324 325 327 329 330 331 333 334 335 334 333 330 326 321 315 309 303 298 293 289 285 281 278 275 272 270 268 267 266 265 264 264 264 264 263 261 258
352 350 349 347 346 343 341 339 338 337 336 331 327 325 324 323 322 322 323 323 323 321 319 318 319 320 321 322 324 327 329 328 325 321 318 313 313 316 321 321 319 318 317 319 320 320 321 321 322 324 326 328 330 332 333 335 336 337 337 335 333 329 324 318 313 307 303 298 294 290 286 282 279 276 273 272 270 268 266 265 264 265 265 265 263 261
351 350 349 348 347 346 343 341 340 338 336 333 329 327 326 325 324 324 325 325 324 323 322 323 324 325 326 327 327 328 329 329 328 325 320 313 312 314 318 319 319 318 317 318 319 320 321 321 322 324 326 329 331 333 333 334 334 335 336 336 335 333 330 326 321 315 309 304 299 295 290 286 282 279 277 275 273 270 268 266 265 265 266 266 265 263
351 350 349 349 349 348 346 344 342 339 336 334 332 331 330 329 328 329 329 329 328 327 327 327 328 328 329 330 329 329 330 332 333 330 323 315 312 313 316 319 319 318 317 319 320 321 322 322 323 325 327 329 331 332 332 331 332 333 336 337 339 339 339 336 332 327 320 314 307 300 293 288 284 281 279 277 275 273 270 268 267 267 268 269 268 265
349 349 349 349 350 349 348 346 344 341 338 336 334 332 331 331 332 333 335 334 333 333 334 334 332 331 331 331 330 330 332 336 337 333 325 317 314 314 317 320 320 319 318 320 321 322 322 323 324 326 327 329 329 329 328 328 330 333 337 340 342 344 344 342 339 335 329 322 314 305 297 291 287 284 282 279 277 274 272 269 267 268 271 273 271 268
348 348 348 349 350 350 349 348 346 344 342 339 337 335 334 335 337 339 339 338 337 338 339 336 333 332 331 331 329 330 333 338 339 333 324 319 317 317 319 321 322 321 320 321 322 323 322 323 324 326 326 326 325 324 324 327 331 335 339 341 343 345 345 344 341 337 332 325 318 310 301 294 290 287 285 282 279 275 271 268 267 270 275 278 277 273
346 346 347 349 350 351 351 351 350 348 346 344 341 339 338 340 342 342 341 340 341 342 340 336 333 330 329 328 328 330 334 337 335 329 323 322 320 319 320 323 324 323 322 322 322 322 322 322 323 324 324 323 322 322 324 328 332 336 339 341 342 343 344 343 341 337 332 327 321 315 307 300 296 294 292 288 283 277 271 268 268 272 279 284 284 279
344 345 346 348 350 351 352 353 353 352 351 349 346 344 343 345 346 345 342 343 344 342 339 336 333 330 328 327 329 331 333 333 331 328 327 326 323 321 322 324 324 324 324 323 323 322 321 321 321 321 320 320 320 322 325 329 333 336 338 339 340 341 342 342 340 337 334 331 328 324 320 315 311 308 305 300 292 283 275 271 271 275 282 289 291 287
341 343 345 347 349 351 353 354 355 355 354 352 351 349 348 348 348 348 346 347 346 342 338 336 334 331 330 329 329 329 329 329 330 331 332 329 324 321 322 323 324 324 325 325 324 322 320 319 319 318 318 319 320 322 325 329 332 334 335 335 336 338 340 341 340 337 336 335 335 335 335 334 332 329 325 319 311 301 290 281 277 278 285 294 298 296
338 339 342 346 349 351 353 354 355 355 355 354 353 353 351 350 349 348 348 349 347 343 339 336 334 332 330 328 326 323 322 326 332 337 336 329 323 320 321 322 322 323 325 324 322 319 317 317 318 318 318 319 321 323 325 328 330 331 331 331 332 335 339 340 339 337 336 337 339 342 345 346 346 344 341 338 333 324 312 297 286 283 288 296 301 302
335 337 340 345 348 351 352 353 354 354 354 354 354 354 353 352 350 349 349 348 347 344 341 338 335 333 331 326 321 317 317 325 334 339 336 329 323 321 322 321 320 321 322 321 318 313 310 311 314 317 318 319 320 322 324 326 328 328 328 328 329 332 337 339 339 337 335 335 338 342 346 350 351 351 349 346 340 332 322 309 297 290 292 298 302 304
332 335 338 343 347 349 350 351 351 351 352 352 353 353 353 352 351 351 350 350 348 346 343 339 336 333 331 327 323 319 321 327 334 339 338 331 325 322 322 321 319 319 320 320 316 311 306 306 309 314 317 318 319 320 322 324 325 326 326 326 328 331 336 338 338 336 333 332 332 335 340 345 349 350 349 344 336 328 321 314 305 299 298 300 302 304
330 332 336 340 344 346 347 347 347 348 349 350 351 351 351 351 351 351 352 352 351 348 344 340 336 333 331 327 324 323 325 331 337 341 341 334 327 323 322 320 319 319 320 319 317 314 309 308 309 311 314 316 318 319 320 322 323 324 325 326 328 332 336 338 338 336 332 329 327 328 331 335 339 341 340 335 328 324 321 318 313 307 302 301 302 304
328 330 333 335 339 341 343 344 344 345 346 347 348 348 348 348 349 350 350 351 351 350 347 344 340 336 331 327 324 323 326 333 340 344 344 337 330 325 321 319 319 320 320 318 317 315 312 310 310 311 312 314 316 318 319 320 321 323 324 327 329 332 336 338 339 337 334 330 326 325 325 328 330 331 329 326 324 323 324 322 318 313 305 301 301 302
329 330 332 333 335 337 338 339 340 342 343 344 344 344 344 345 346 347 348 349 349 349 349 347 344 340 336 330 325 323 326 333 341 346 345 340 333 327 322 320 322 323 321 319 317 315 313 312 312 312 312 313 314 316 318 320 322 323 325 327 329 332 335 338 340 339 337 333 330 327 325 325 325 323 320 320 322 324 323 322 320 316 310 302 299 300
329 331 331 331 332 333 334 334 336 337 339 340 340 339 340 341 342 343 344 345 346 347 347 347 345 343 339 335 331 327 329 335 340 344 344 341 336 330 324 323 325 326 324 319 316 315 313 312 313 313 313 312 312 314 317 321 323 324 325 327 329 331 334 338 340 341 340 337 334 331 327 325 321 318 315 317 319 321 321 320 320 319 315 308 303 302
329 330 329 329 328 329 329 330 331 332 334 335 335 335 336 337 338 339 340 341 342 344 344 344 344 343 341 338 335 333 333 336 340 342 343 342 339 334 329 327 328 328 327 322 318 315 313 311 311 312 312 312 312 313 315 318 321 322 324 327 328 330 333 336 338 339 340 339 336 333 329 325 320 317 315 315 316 318 319 320 321 322 322 317 312 309
329 329 328 327 325 324 325 325 326 328 329 330 330 331 332 333 335 336 336 338 339 341 342 341 341 341 341 340 338 337 337 338 340 342 343 343 341 338 333 329 328 328 328 324 320 316 313 310 309 308 309 310 312 314 316 318 319 321 324 327 328 330 332 334 336 337 338 337 336 334 332 328 324 321 318 316 315 316 318 320 322 324 327 327 325 322
328 328 327 324 322 321 321 322 323 324 326 327 328 329 330 330 331 331 332 334 336 338 339 340 340 340 341 340 340 339 339 339 340 341 342 342 342 340 335 330 328 328 327 323 320 316 313 310 309 308 308 309 310 312 315 316 318 321 324 324 325 327 331 333 335 335 335 334 334 334 334 332 329 326 322 319 317 316 317 319 321 323 326 330 333 333
329 328 326 324 322 322 322 322 322 323 324 325 327 328 328 329 329 329 330 331 333 334 336 337 338 338 339 340 341 342 341 341 341 341 341 341 341 340 337 332 330 328 324 321 319 317 314 311 310 310 310 310 311 312 313 315 318 321 323 321 321 324 329 332 333 332 331 330 332 333 334 334 332 330 326 324 321 320 319 319 319 320 322 326 330 333
330 328 327 326 326 325 324 324 323 324 324 325 326 327 328 328 329 330 331 332 333 334 334 335 335 336 337 339 341 343 342 341 341 340 339 340 339 338 335 332 330 328 324 321 319 316 314 313 312 311 312 312 312 312 312 315 319 322 322 322 323 325 327 329 329 329 327 327 329 332 333 333 331 330 329 327 325 323 321 320 318 318 319 320 322 326
330 330 330 330 330 329 328 327 327 326 326 326 327 327 327 328 328 329 330 331 332 334 335 335 335 334 334 336 338 340 340 340 340 339 338 338 337 336 333 331 328 326 323 320 317 316 315 316 314 313 314 315 314 311 311 314 318 321 322 323 323 322 320 322 325 326 325 325 327 330 331 331 330 330 329 327 326 324 323 321 319 317 315 315 315 317
333 334 335 334 332 331 331 330 330 330 330 329 329 328 328 329 329 331 332 331 331 332 334 335 334 332 330 330 331 334 336 337 338 338 337 336 335 334 332 329 326 324 323 319 317 316 317 316 316 316 317 316 314 312 311 313 316 318 321 322 321 318 315 317 320 322 323 324 326 328 329 330 330 330 328 326 325 324 323 322 320 317 314 312 311 311
337 337 337 336 335 335 335 334 333 333 332 331 331 331 331 331 331 332 333 331 330 331 332 333 332 329 327 326 327 328 330 332 334 335 335 335 334 332 330 328 326 324 322 320 318 317 316 315 315 317 318 316 313 311 310 312 314 316 317 319 319 317 315 317 318 320 321 322 324 326 328 330 330 330 328 327 326 325 324 324 322 320 317 314 311 309
337 336 336 336 336 335 334 334 334 334 333 332 332 332 333 332 333 333 334 332 330 330 331 332 331 327 323 323 324 325 325 327 329 330 331 331 331 330 329 327 326 324 322 320 318 317 315 315 314 315 315 313 311 310 310 311 312 312 313 315 316 316 316 317 317 318 320 321 323 325 328 330 331 330 329 329 327 325 324 324 324 323 321 317 313 309
334 334 334 335 334 334 334 334 334 333 331 331 331 332 333 333 334 334 333 332 331 330 331 331 329 325 322 322 322 322 322 322 323 324 325 326 327 327 327 326 324 323 322 320 318 317 317 317 316 314 311 309 308 308 310 311 311 310 311 313 314 314 314 315 317 318 319 320 322 325 328 330 331 330 331 330 328 326 324 324 324 324 323 320 316 311
334 334 334 334 333 332 332 332 332 331 330 330 330 332 333 334 334 333 332 332 332 332 330 329 326 324 322 321 320 320 320 319 319 320 321 322 323 324 325 324 324 323 322 320 319 318 317 317 316 314 311 308 306 305 307 309 309 308 309 311 311 312 313 314 316 318 319 320 322 325 328 329 329 329 330 329 327 326 325 324 324 324 324 322 318 313
335 334 334 333 332 331 331 332 331 331 330 330 330 331 333 334 335 334 333 333 333 332 329 326 324 323 321 320 320 320 319 319 318 318 319 321 321 322 322 322 323 322 321 321 320 319 318 317 316 315 313 310 305 303 304 305 307 308 309 309 310 310 311 313 316 318 319 320 323 326 328 329 329 329 329 327 325 324 324 323 323 323 323 322 319 316
334 334 334 333 333 332 332 332 332 331 330 330 329 330 331 334 337 338 337 336 334 332 328 326 323 322 320 320 320 320 320 319 318 318 319 321 321 322 321 322 322 322 321 321 321 321 320 319 318 316 314 312 308 305 304 305 307 308 309 309 309 310 311 312 315 317 319 321 323 325 327 328 330 330 328 325 322 321 321 322 321 322 322 322 321 319
334 334 334 334 333 333 333 333 332 332 331 330 329 330 330 333 336 338 338 336 334 331 329 327 324 322 320 320 319 319 319 319 319 318 319 321 322 322 322 322 322 322 322 321 321 321 321 319 318 317 316 314 312 309 307 306 307 308 308 308 310 311 311 312 314 317 319 320 322 324 326 327 327 327 325 322 319 318 319 319 319 320 321 322 323 321